Tracking 23610 objects as of 21-Sep-2021
HD Live streaming from Space Station
objects crossing your sky now

STARLINK-1757

Track STARLINK-1757 now!
10-day predictions
STARLINK-1757 is classified as:


NORAD ID: 46339
Int'l Code: 2020-062Q
Perigee: 389.2 km
Apogee: 396.6 km
Inclination: 53.1 °
Period: 92.3 minutes
Semi major axis: 6763 km
RCS: Unknown
Launch date: September 3, 2020
Source: United States (US)
Launch site: AIR FORCE EASTERN TEST RANGE (AFETR)
aabbcc
Your satellite tracking list
Your tracking list is empty




NASA's NSSDC Master Catalog

Two Line Element Set (TLE):
1 46339U 20062Q   21263.76154518  .00058486  00000-0  69346-3 0  9998
2 46339  53.0540 107.6818 0005503 277.6444  82.3943 15.60660654 59093
Source of the keplerian elements: AFSPC